User: anonymous   Login
Location: Maiden_LMO
(35.5760°N, 81.2120°W)
Time: 14:26:50
(UTC-05:00)
Language:

ADEOS II - Orbit

View from above orbital plane
View from above orbital plane
View from above satellite
View from above satellite

Ground track
Ground track

The orbit data is extracted from the following two-line orbital elements,

1 27597U 02056A   17054.90484953 +.00000075 +00000-0 +47488-4 0  9999
2 27597 098.3555 029.3620 0000737 032.3634 327.7592 14.27268761739263
Epoch (UTC): 23 February 2017 21:42:58
Eccentricity: 0.0000737
inclination: 98.3555°
perigee height: 800 km
apogee height: 801 km
right ascension of ascending node: 29.3620°
argument of perigee: 32.3634°
revolutions per day: 14.27268761
mean anomaly at epoch: 327.7592°
orbit number at epoch: 73926

The dashed part of the orbit path shows where the satellite is in the earth's shadow,  

DLR